Location: Izdebno
(52.6670°N, 16.2170°E)
Time: 07:08:42
(UTC+02:00)

Vanguard 2 Rocket - Pass Details

Date: 26 February 2024
Orbit: 555 x 3307 km, 32.9° (Epoch: 24 April)

Event Time Altitude Azimuth Distance (km) Brightness Sun altitude
Rises 15:46:27 0° 239° (WSW) 4,655 12.6 13.1°
Reaches altitude 10° 15:49:32 10° 229° (SW) 4,019 12.9 12.7°
Maximum altitude 15:59:08 32° 172° (S) 3,499 10.3 11.5°
Drops below altitude 10° 16:13:15 10° 119° (ESE) 5,944 10.8 9.6°
Sets 16:19:06 0° 112° (ESE) 7,184 11.1 8.8°
